Location: Caltech
(34.1382°N, 118.1253°W)
Time: 10:43:28
(UTC-07:00)

Iridium 65 - Visible Passes

Search period start: 28 July 2015 00:00
Search period end: 07 August 2015 00:00
Orbit: 776 x 779 km, 86.4° (Epoch: 28 July)

Date Brightness Start Highest point End Pass type
(mag) Time Alt. Az. Time Alt. Az. Time Alt. Az.
28 Jul 6.7 02:16:09 10° N 02:19:29 40° N 02:19:29 40° N visible
29 Jul 7.3 01:42:55 10° NNE 01:45:50 28° NE 01:45:50 28° NE visible
29 Jul 7.5 03:24:32 10° NW 03:26:17 16° NW 03:26:17 16° NW visible
30 Jul 7.9 01:10:15 10° NNE 01:12:11 17° NE 01:12:11 17° NE visible
30 Jul 7.1 02:50:06 10° NNW 02:52:38 25° NW 02:52:38 25° NW visible
31 Jul 7.0 02:16:15 10° N 02:18:59 32° NNW 02:18:59 32° NNW visible
01 Aug 7.3 01:42:46 10° N 01:45:21 29° NNE 01:45:21 29° NNE visible
02 Aug 7.7 01:09:44 10° NNE 01:11:44 20° NE 01:11:44 20° NE visible
02 Aug 7.6 02:50:38 10° NNW 02:52:11 17° NW 02:52:11 17° NW visible
03 Aug 8.2 00:37:27 10° NE 00:38:07 12° NE 00:38:07 12° NE visible
03 Aug 7.4 02:16:29 10° NNW 02:18:34 23° NNW 02:18:34 23° NNW visible
04 Aug 7.5 01:42:47 10° N 01:44:58 26° N 01:44:58 26° N visible
05 Aug 7.7 01:09:28 10° NNE 01:11:21 21° NNE 01:11:21 21° NNE visible
05 Aug 8.0 02:51:29 10° NW 02:51:49 11° NW 02:51:49 11° NW visible
06 Aug 8.0 00:36:39 10° NNE 00:37:46 15° NE 00:37:46 15° NE visible
06 Aug 7.8 02:16:53 10° NNW 02:18:13 17° NNW 02:18:13 17° NNW visible
